Vertical_Velocity
-2 -5 -5 -2 -6 -2 -17 -1 -2 -5 -0 -4 1 19 13 -4 -2 -6 -4 -4 -6 -3 5 1 3 -1 1 2 3 4 -1 -1 -3 -1 -1 -3 -3 0 1 1 1 1 -2 13
-1 -1 -9 -7 -8 -6 -19 4 -18 -2 -8 -1 -4 -8 -4 4 -1 1 -2 -1 2 1 -4 -4 -4 0 -1 1 1 4 0 -0 -1 -2 -3 1 1 1 1 1 -4 2 -0 1
2 -1 -11 -7 -6 -9 -11 -2 -3 -4 -12 -6 -2 3 -2 -2 -3 -2 -2 -0 0 1 -1 1 3 -0 0 1 0 -1 -1 -1 0 -2 -1 3 -1 -2 -4 -0 -4 2 -4 10
-1 -1 1 -6 -10 -3 -6 -10 -4 -5 -9 -6 -5 -4 1 -1 -1 -2 0 -3 -1 0 1 -2 0 1 3 -0 -0 2 -1 -1 -1 -1 1 1 0 -1 -1 3 2 -1 7 -6
-0 -0 3 -3 1 -1 1 -5 -2 -6 -2 -6 -10 -5 -6 -4 -1 -2 0 -1 -0 -1 -0 -1 0 -1 -1 1 -1 -0 -1 -2 -4 -2 -0 3 0 -0 -1 -1 -2 -4 -6 -0
1 -1 -5 0 1 0 3 1 -3 -3 -0 -1 -7 -7 -5 -3 -3 -4 -4 -4 -3 -0 -1 -1 -1 1 -1 0 0 -0 -1 -2 -3 -0 -1 -2 -2 -0 -2 -1 -3 -3 -0 -4
-1 2 0 -1 -3 -2 -2 -2 2 -1 -7 -3 -0 -5 -7 -2 -3 -4 -3 -1 -1 -1 -0 0 -1 -1 -2 -0 1 0 -1 -1 -1 -0 -1 -1 -1 -1 -3 0 -2 -0 2 0
0 1 2 -0 1 -4 -2 -1 -0 2 -2 -2 -1 -3 -0 -4 -3 -5 -2 -2 -1 -6 -1 1 -2 -2 -0 -2 -0 -1 -1 0 -2 -2 -0 -1 -0 -1 -1 -1 -1 2 -2 -3
-4 1 1 3 -2 2 -2 -2 1 -2 -1 2 1 1 1 -3 -3 -1 1 -3 -4 -2 -5 -0 1 1 2 -1 -0 -0 0 1 -0 -1 -2 -1 -1 -1 0 -1 1 -0 -1 0
2 2 -0 -2 -1 -1 0 -2 -3 1 -1 -3 0 3 -0 1 3 -2 -2 1 -1 -1 0 -2 -1 3 1 -0 2 0 0 0 -0 -1 -2 -2 -1 1 -2 -0 0 1 -1 1
3 3 5 3 1 -2 -1 1 0 -2 5 -3 -2 -3 1 -0 1 0 -0 1 3 -0 -2 -1 -1 3 1 1 1 2 0 -0 -2 -1 -0 -3 1 -1 -0 -0 0 -0 -2 -0
1 3 1 1 0 6 6 -4 2 -1 0 -2 4 -1 5 2 -4 3 -1 1 -3 1 1 2 0 1 3 2 -0 1 -2 -1 0 -1 -1 -1 0 -1 -0 0 1 -2 -1 -1
-0 0 0 2 2 0 4 3 -4 -3 3 17 -6 13 -1 0 8 -6 1 1 -0 -3 -0 2 1 1 2 1 -0 1 1 -2 3 -0 -4 0 -1 -1 -0 1 -1 -1 -0 -1
-1 -0 -0 -1 -1 -0 2 4 -0 -2 -2 0 4 10 -5 8 3 3 2 -2 2 -0 -1 0 1 1 2 -1 1 -0 -8 -1 0 2 -1 0 -2 -1 -2 -0 -1 -1 -0 -1
-1 -1 -1 -1 -1 -1 -3 -2 -4 -2 4 3 9 8 18 17 12 8 0 0 3 1 -1 -0 2 -1 1 -1 -1 -7 -1 2 0 4 -9 -1 -3 1 1 0 -1 -1 1 -1
1 0 1 -3 -1 -3 -3 -2 -1 -3 2 3 4 7 7 8 8 3 2 1 4 -1 1 1 3 -2 -1 1 0 -6 -0 -1 -2 3 4 5 -0 1 -0 -1 0 1 1 -0
-0 -0 1 -2 -3 -2 -1 -3 -5 -4 -4 -7 -9 1 4 12 6 3 -2 2 3 3 -0 -0 -2 -7 -3 -0 1 -3 -3 1 1 -1 -3 -2 -3 -2 1 0 0 1 1 0
0 1 -0 -3 -4 1 -2 -12 -6 -6 -8 5 31 15 8 5 1 -0 -1 6 5 -1 1 -1 -8 -5 -2 2 -3 -4 -2 -3 -1 1 1 -0 1 0 1 1 2 2 1 -0
0 2 -2 -5 1 -6 -7 -9 -12 -3 14 13 22 7 7 0 0 1 1 -0 -1 -2 -3 -4 -4 -5 -1 -2 -3 -3 1 -1 -1 -1 -1 -1 -1 0 1 2 3 2 0 -2
0 1 -1 -3 -3 -4 -11 -10 -9 -7 2 -2 -0 4 2 0 1 1 3 1 -0 14 -2 -1 0 -3 3 -1 -0 -3 -1 2 0 1 0 0 -1 0 1 1 3 0 -1 -1
1 0 2 -1 -7 -4 -3 -5 -4 -0 -1 -1 -0 -2 1 -1 1 4 -1 18 6 -0 -0 -0 -2 4 2 -1 0 -2 -1 -0 2 0 -0 -0 1 -0 -1 -0 2 -0 0 -3
-0 1 4 4 1 -3 -2 -2 -5 -1 1 -1 -1 2 0 2 6 6 5 1 6 -0 3 1 2 0 1 -1 -1 1 -0 -2 -1 -0 -0 -0 2 0 -0 -1 0 1 -1 -2
-1 1 2 3 4 -1 0 -1 -5 -1 -2 -0 0 1 6 -1 6 1 -3 -1 -1 -1 -1 -0 1 1 -1 -1 -2 -2 2 0 -3 -2 0 1 -1 -0 -1 0 0 -0 0 -1
-1 2 2 -2 1 -1 0 2 1 -1 -2 -2 0 -1 0 0 -0 -0 -2 1 -2 -1 -0 -0 0 1 -1 -1 -1 -1 -1 2 0 2 3 0 1 4 -0 0 1 2 0 2
-1 1 4 3 4 1 -1 2 4 2 1 -1 0 0 -1 -1 0 -2 0 -1 -2 -0 0 0 0 1 2 2 1 -1 -2 -1 4 4 8 5 1 5 4 3 1 4 1 11
-0 -1 6 -0 2 1 1 -0 2 3 3 2 -0 -2 -0 -1 -3 2 0 2 3 -1 1 1 1 1 0 -0 0 1 1 0 -1 2 2 2 3 3 5 5 4 3 -2 5
4 5 1 3 -1 2 1 1 0 1 3 1 -0 -2 0 1 -5 2 6 8 -3 -1 -0 0 0 -1 -0 -0 -0 -0 -0 1 0 -1 -1 -1 -0 -0 4 3 6 4 7 9
Height
5634 5624 5611 5599 5590 5583 5578 5575 5573 5569 5566 5568 5566 5568 5573 5577 5582 5588 5594 5598 5601 5605 5610 5615 5620 5624 5628 5633 5638 5643 5647 5651 5653 5656 5658 5660 5661 5662 5661 5660 5661 5658 5654 5661
5636 5628 5618 5609 5601 5595 5591 5590 5587 5585 5584 5582 5580 5581 5584 5588 5592 5596 5600 5602 5605 5608 5611 5616 5620 5625 5629 5633 5638 5643 5647 5649 5651 5654 5657 5657 5656 5656 5656 5656 5656 5654 5650 5653
5637 5630 5622 5614 5609 5605 5601 5600 5599 5597 5597 5595 5593 5592 5593 5597 5599 5601 5604 5605 5607 5612 5615 5620 5623 5626 5630 5634 5638 5641 5645 5647 5650 5652 5652 5652 5652 5651 5652 5652 5653 5652 5645 5648
5639 5632 5625 5618 5612 5610 5609 5607 5606 5604 5604 5604 5603 5602 5602 5603 5605 5607 5608 5609 5611 5614 5618 5621 5624 5627 5631 5634 5637 5640 5643 5645 5646 5647 5647 5648 5648 5649 5650 5650 5650 5649 5647 5637
5637 5634 5630 5624 5618 5613 5612 5609 5609 5609 5607 5607 5608 5608 5607 5609 5611 5611 5612 5614 5614 5616 5619 5622 5625 5627 5630 5633 5636 5638 5640 5642 5643 5644 5644 5645 5646 5647 5647 5647 5644 5641 5639 5635
5634 5632 5629 5627 5622 5617 5613 5611 5610 5610 5610 5610 5609 5610 5611 5610 5612 5613 5614 5615 5616 5618 5620 5622 5624 5627 5629 5631 5634 5636 5638 5639 5640 5641 5641 5641 5643 5644 5644 5643 5642 5639 5636 5632
5630 5628 5627 5624 5622 5617 5614 5612 5610 5609 5610 5610 5610 5610 5611 5613 5613 5614 5616 5616 5617 5619 5619 5621 5624 5626 5627 5629 5631 5633 5635 5636 5636 5638 5638 5639 5639 5640 5641 5640 5639 5638 5634 5629
5624 5623 5621 5621 5620 5617 5613 5611 5609 5608 5608 5609 5610 5610 5611 5611 5613 5614 5615 5616 5617 5618 5619 5620 5621 5623 5625 5627 5628 5630 5632 5632 5633 5634 5635 5636 5637 5638 5638 5638 5637 5635 5631 5627
5618 5617 5616 5615 5614 5613 5612 5610 5607 5606 5605 5606 5605 5606 5607 5608 5609 5611 5611 5613 5614 5616 5617 5618 5618 5619 5621 5623 5625 5626 5628 5628 5630 5631 5632 5633 5634 5635 5636 5635 5634 5632 5629 5624
5611 5610 5609 5608 5607 5606 5605 5604 5603 5601 5600 5599 5599 5600 5602 5603 5604 5605 5607 5608 5609 5611 5612 5613 5614 5615 5617 5619 5620 5622 5623 5625 5627 5628 5629 5631 5631 5632 5632 5632 5634 5629 5625 5622
5605 5603 5602 5602 5600 5598 5596 5596 5595 5595 5594 5591 5591 5591 5592 5595 5597 5598 5600 5602 5603 5605 5607 5608 5610 5611 5612 5614 5616 5617 5620 5621 5623 5624 5626 5628 5628 5629 5629 5629 5626 5625 5623 5620
5596 5595 5594 5593 5592 5590 5588 5585 5585 5584 5583 5584 5580 5580 5582 5584 5586 5590 5593 5596 5598 5600 5601 5603 5604 5606 5608 5610 5612 5614 5616 5617 5619 5621 5622 5623 5624 5625 5625 5624 5623 5622 5620 5617
5589 5588 5587 5584 5582 5579 5576 5573 5570 5569 5569 5569 5567 5569 5568 5571 5576 5579 5584 5587 5591 5594 5596 5597 5599 5601 5603 5605 5607 5609 5610 5612 5614 5615 5617 5619 5620 5621 5621 5620 5620 5619 5616 5615
5581 5579 5578 5576 5572 5569 5564 5559 5553 5550 5547 5546 5544 5544 5548 5554 5562 5570 5575 5579 5583 5587 5591 5592 5594 5596 5598 5600 5602 5603 5602 5605 5608 5610 5611 5614 5615 5616 5616 5616 5616 5615 5613 5612
5574 5571 5569 5566 5562 5556 5550 5541 5533 5524 5518 5511 5507 5511 5523 5536 5549 5560 5567 5572 5577 5581 5585 5588 5590 5591 5594 5595 5596 5595 5598 5600 5603 5605 5604 5608 5609 5610 5611 5611 5612 5611 5610 5610
5565 5564 5561 5557 5551 5544 5535 5523 5510 5494 5481 5477 5480 5490 5507 5527 5542 5552 5560 5567 5572 5577 5580 5583 5585 5587 5589 5591 5591 5590 5593 5594 5596 5598 5599 5602 5603 5604 5604 5605 5606 5606 5606 5606
5559 5557 5553 5549 5542 5533 5522 5507 5490 5477 5471 5474 5482 5494 5511 5527 5539 5549 5556 5563 5568 5572 5576 5579 5580 5582 5583 5586 5587 5586 5587 5589 5590 5590 5591 5593 5594 5596 5598 5599 5600 5600 5601 5601
5552 5550 5547 5542 5535 5526 5511 5497 5490 5486 5486 5487 5496 5505 5518 5528 5539 5547 5554 5560 5565 5568 5571 5574 5575 5579 5580 5581 5581 5581 5582 5582 5582 5583 5585 5586 5587 5589 5591 5593 5594 5594 5595 5597
5545 5544 5541 5536 5531 5521 5511 5508 5504 5503 5503 5502 5506 5514 5524 5532 5540 5547 5552 5557 5561 5565 5567 5569 5572 5574 5576 5576 5576 5576 5576 5576 5576 5577 5579 5581 5582 5584 5585 5586 5588 5589 5590 5592
5540 5539 5537 5532 5528 5520 5518 5520 5516 5514 5513 5516 5519 5523 5530 5536 5542 5547 5553 5556 5559 5561 5564 5564 5567 5569 5571 5571 5571 5571 5571 5570 5571 5572 5574 5576 5577 5578 5580 5581 5583 5585 5586 5587
5536 5535 5533 5530 5526 5525 5524 5526 5524 5522 5523 5524 5526 5531 5535 5539 5543 5547 5550 5552 5555 5557 5560 5560 5562 5564 5566 5567 5567 5566 5566 5566 5567 5568 5570 5571 5573 5574 5575 5576 5578 5579 5580 5582
5531 5531 5530 5529 5526 5527 5526 5527 5528 5528 5529 5530 5531 5534 5537 5540 5544 5547 5549 5550 5551 5553 5555 5556 5558 5560 5561 5562 5562 5562 5561 5562 5563 5564 5566 5567 5568 5569 5570 5572 5573 5574 5575 5576
5526 5527 5526 5527 5525 5526 5526 5528 5529 5530 5531 5533 5534 5536 5538 5541 5544 5546 5547 5548 5549 5551 5552 5553 5555 5556 5557 5557 5558 5558 5558 5557 5557 5559 5561 5562 5563 5564 5565 5566 5567 5568 5569 5571
5520 5520 5521 5521 5521 5522 5524 5525 5528 5529 5530 5532 5534 5536 5538 5539 5542 5544 5546 5548 5548 5549 5549 5550 5550 5551 5552 5553 5553 5554 5554 5553 5553 5554 5556 5558 5559 5559 5559 5560 5560 5562 5564 5566
5513 5514 5514 5515 5516 5517 5520 5521 5522 5526 5527 5529 5531 5533 5535 5537 5539 5541 5543 5545 5546 5546 5548 5548 5548 5549 5549 5550 5550 5550 5550 5550 5550 5549 5551 5553 5553 5554 5554 5555 5555 5556 5559 5562
5504 5506 5506 5507 5509 5511 5513 5516 5517 5520 5523 5524 5527 5529 5531 5533 5535 5538 5539 5541 5542 5544 5545 5546 5546 5546 5547 5547 5547 5547 5547 5546 5546 5546 5547 5547 5548 5549 5550 5551 5551 5551 5553 5555
5495 5497 5497 5500 5502 5503 5505 5508 5512 5513 5517 5519 5521 5524 5526 5528 5530 5533 5534 5536 5537 5538 5539 5541 5542 5543 5543 5543 5543 5543 5543 5543 5543 5543 5543 5543 5543 5543 5545 5546 5548 5549 5550 5551